Location: Gleizolles
(44.4833°N, 6.7667°E)
Time: 05:53:23
(UTC+00:00)

PCSat - Pass Details

Date: 10 December 2022
Orbit: 785 x 793 km, 67.0° (Epoch: 27 January)

Event Time Altitude Azimuth Distance (km) Brightness Sun altitude
Rises 16:27:42 0° 184° (S) 3,263 13.2 -6.2°
Reaches altitude 10° 16:30:15 10° 176° (S) 2,340 12.3 -6.6°
Maximum altitude 16:35:06 35° 111° (ESE) 1,244 10.3 -7.4°
Drops below altitude 10° 16:39:59 10° 47° (NE) 2,360 11.4 -8.2°
Enters shadow 16:40:24 - 45° (NE) 2,506 11.6 -8.3°
